Location: Athée
(47.8870°N, 0.9505°W)
Time: 05:46:25
(UTC+00:00)

Daily predictions for brighter satellites

Satellite Brightness Start Highest point End
(mag) Time Altitude Azimuth Time Altitude Azimuth Time Altitude Azimuth
SL-16 R/B 4.3 00:59:04 27° NNE 00:59:04 27° NNE 01:02:18 10° N
ADEOS II 4.3 01:34:32 10° NNE 01:36:36 21° NE 01:36:36 21° NE
CZ-2D R/B 3.7 02:23:51 10° N 02:26:25 28° N 02:26:25 28° N
Resurs 1-4 Rocket 3.8 02:25:15 10° N 02:27:37 26° N 02:27:37 26° N
Cosmos 1934 Rocket 4.5 02:35:19 54° ESE 02:35:44 55° E 02:41:54 10° NNE
SL-16 R/B 4.2 02:44:11 21° NW 02:44:11 21° NW 02:46:11 10° NNW
IDEFIX/ARIANE 42P 3.7 02:46:29 10° N 02:49:43 37° N 02:49:43 37° N
Cosmos 1980 Rocket 4.2 02:49:00 10° N 02:53:42 26° NE 02:58:22 10° ESE
MSX 4.1 02:53:01 10° N 02:57:46 58° NNW 02:57:46 58° NNW
BREEZE-M DEB (TANK) 4.3 03:08:22 35° SSE 03:08:22 35° SSE 03:15:13 10° SE
IRS-1D 3.6 03:05:13 10° NNE 03:10:11 78° NNE 03:10:11 78° NNE
ATLAS CENTAUR R/B 3.5 03:12:27 22° SE 03:13:44 24° ESE 03:17:39 10° ENE
ADEOS II 3.3 03:14:15 10° N 03:17:31 30° NNW 03:17:31 30° NNW
Cosmos 407 Rocket 3.8 03:15:57 10° NNW 03:27:30 - SSE 03:20:08 56° NNW
Atlas Centaur 2 4.3 03:21:38 21° S 03:21:38 21° S 03:26:56 10° SE
ATLAS 5 CENTAUR R/B 4.0 03:22:01 12° NNW 03:22:52 13° N 03:24:59 10° NNE
Cosmos 1666 Rocket 4.2 03:22:10 10° N 03:26:35 55° ENE 03:30:03 16° SSE
Meteor 1-14 Rocket 4.1 03:23:05 10° NNW 03:29:00 75° W 03:30:18 55° SSW
USA 307 3.5 03:32:44 49° ESE 03:32:44 49° ESE 03:36:23 10° ENE
Meteor 2-11 Rocket 4.5 03:32:24 55° W 03:32:37 55° WNW 03:38:39 10° N
Cosmos 1833 Rocket 2.9 03:32:50 44° S 03:34:36 69° ESE 03:40:14 10° NNE
CZ-2C R/B 2.7 03:30:40 10° NNE 03:35:41 66° ESE 03:37:31 37° S
Cosmos 2360 4.1 03:32:12 10° NNW 03:37:57 88° ENE 03:43:40 10° SSE
Cosmos 1151 Rocket 3.0 03:39:15 69° SE 03:39:36 75° E 03:43:53 10° NNE
FENGYUN 3A 3.5 03:35:04 10° NNE 03:40:28 79° WNW 03:41:44 54° SSW
Meteor 1-11 Rocket 4.1 03:37:17 10° N 03:43:16 69° ENE 03:49:11 10° SSE
USA 306 2.8 03:44:56 73° SE 03:44:56 73° SE 03:49:00 10° ENE
ARIANE 5 R/B 3.2 03:44:55 10° NNE 03:49:52 53° E 03:54:44 10° S
Cosmos 2082 Rocket 3.4 03:46:28 10° S 03:51:38 39° ESE 03:56:48 10° NE
Lacrosse 4 Rocket 4.2 03:49:51 10° N 03:52:50 18° NE 03:55:50 10° E
RUBIN 8/PSLV 4.4 03:50:34 10° NNE 03:54:54 87° WNW 03:56:08 48° SSW
ALOS 2.2 03:50:47 10° N 03:55:26 66° WNW 03:56:17 54° SW
Cosmos 1470 Rocket 4.2 03:53:33 10° N 03:57:49 56° ENE 04:02:06 10° SSE
Cosmos 1697 Rocket 2.6 03:52:38 10° NNW 03:58:15 68° WSW 04:03:51 10° SSE
COSMOS 2406 3.7 03:55:00 16° S 03:59:22 58° ESE 04:04:57 10° NE
H-2A ROCKET BODY 4.5 03:57:07 11° S 03:59:49 14° SSE 04:05:08 10° SE
METEOR-M 4.2 03:55:23 10° NNE 04:00:46 80° ESE 04:05:23 14° S
Helios 1B rocket 2.3 03:57:26 10° NNE 04:01:32 87° ESE 04:03:02 38° SSW
Cosmos 676 Rocket 4.0 03:56:21 10° NNW 04:01:35 86° ENE 04:06:51 10° SSE
Cosmos 1356 3.7 04:02:57 51° N 04:02:57 51° N 04:05:33 10° N
Cosmos 1447 Rocket 4.4 03:56:47 10° NNW 04:03:04 68° W 04:09:16 10° S
IRS-P3 4.2 04:00:05 10° NNE 04:05:27 76° ESE 04:10:47 10° S
ERBS 3.2 04:06:51 33° N 04:06:51 33° N 04:09:00 10° NE
CZ-2D R/B 4.1 04:02:27 10° NNE 04:06:20 53° E 04:10:15 10° S
USA 308 2.7 04:06:20 55° SW 04:07:12 85° SE 04:11:22 10° ENE
BREEZE-M DEB (TANK) 1.5 04:07:53 79° NNE 04:07:53 79° NNE 04:11:17 10° ENE
CZ-2C R/B 2.5 04:02:35 10° SSE 04:07:48 90° ENE 04:13:10 10° NNW
CZ-2D R/B 4.3 04:07:04 10° NW 04:07:43 10° NW 04:07:43 10° NW
Cosmos 1743 2.5 04:04:24 10° N 04:08:13 88° W 04:12:01 10° S
Cosmos 1624 Rocket 3.9 04:06:30 28° SSW 04:09:25 83° WNW 04:14:48 10° NNE
Meteor 2-6 Rocket 4.3 04:10:13 35° WSW 04:12:04 49° WNW 04:17:25 10° N
Cosmos 1536 2.7 04:10:15 10° NNW 04:14:19 78° W 04:18:21 10° S
Cosmos 1441 Rocket 3.1 04:12:33 25° S 04:14:36 83° E 04:18:22 10° NNE
Envisat 3.7 04:11:28 10° NNE 04:16:28 55° E 04:21:26 10° S
Meteor 1-4 Rocket 2.4 04:13:49 10° NNW 04:17:27 76° W 04:21:05 10° S
Cosmos 1371 Rocket 4.0 04:20:34 26° SW 04:23:28 60° WNW 04:28:40 10° NNE
Cosmos 1346 Rocket 2.8 04:22:51 32° SW 04:24:24 55° WNW 04:28:19 10° N
Cosmos 2322 Rocket 4.2 04:23:34 10° NNW 04:28:27 28° NE 04:33:16 10° ESE
Cosmos 1605 Rocket 4.5 04:26:57 24° WSW 04:29:52 37° WNW 04:35:30 10° N
COSMO-SKYMED 1 4.4 04:26:25 10° SE 04:30:18 33° ENE 04:34:14 10° N
H-2A R/B 3.6 04:31:02 10° NNE 04:34:35 48° E 04:38:07 10° S
Cosmos 1459 Rocket 4.0 04:28:43 10° S 04:35:05 88° W 04:41:31 10° N
USA 305 3.0 04:33:26 29° W 04:35:21 59° NNW 04:39:27 10° ENE
SL-08 R/B 3.2 04:30:49 10° S 04:35:27 69° WSW 04:40:12 10° NNW
DELTA 2 DEB (DPAF) 4.2 04:32:24 10° S 04:36:42 54° W 04:41:03 10° NNW
Cosmos 1980 Rocket 2.1 04:32:37 10° NNW 04:38:10 65° WSW 04:43:41 10° SSE
CENTAUR R/B 3.2 04:32:43 10° SSW 04:38:16 52° ESE 04:44:59 10° NE
Meteor 2-9 Rocket 4.3 04:35:10 10° N 04:40:59 87° E 04:46:36 10° S
Meteor 1-29 2.9 04:38:03 10° NNE 04:41:22 81° ESE 04:44:40 10° SSW
X-37B 0.8 04:42:04 32° SW 04:43:02 47° S 04:45:49 10° ESE
Cosmos 1802 Rocket 4.1 04:36:46 10° S 04:43:10 86° E 04:49:31 10° N
CZ-2C R/B 3.5 04:38:34 10° NNE 04:44:24 76° ESE 04:49:58 10° S
Meteor 1-27 Rocket 3.8 04:38:41 10° SSW 04:44:24 63° WNW 04:50:16 10° N
Cosmos 2346 Rocket 4.4 04:38:39 10° NNW 04:44:37 61° W 04:50:35 10° S
Cosmos 2369 3.8 04:39:10 10° NW 04:44:42 54° WSW 04:50:10 10° S
Cosmos 1850 Rocket 4.1 04:41:14 10° NNW 04:46:37 84° ENE 04:51:57 10° SSE
YAOGAN 6 2.6 04:46:28 10° N 04:50:04 57° WNW 04:53:36 10° SSW
Cosmos 1633 Rocket 4.0 04:47:59 10° NNW 04:51:33 25° W 04:55:06 10° SW
ATLAS CENTAUR R/B 1.9 04:48:28 17° SW 04:52:10 59° NW 04:56:59 10° NNE
Cosmos 2278 3.7 04:46:36 10° NNW 04:52:18 88° WSW 04:57:57 10° SSE
Cosmos 1725 Rocket 4.2 04:46:45 10° S 04:53:03 80° E 04:59:24 10° N
Cosmos 2056 Rocket 4.0 04:50:12 16° WSW 04:53:46 37° WNW 04:58:32 10° N
CZ-4C R/B 3.4 04:51:20 10° S 04:55:29 73° WSW 04:59:50 10° NNW
SL-16 R/B 3.1 04:50:14 10° NNW 04:55:49 53° ENE 05:01:21 10° SE
Cosmos 375 4.5 04:54:30 15° SW 04:57:38 65° NW 05:02:18 10° NE
NOSS 3-2 (A) 3.6 04:53:07 10° SSW 04:58:30 70° SE 05:04:50 10° NE
Okean 1 3.3 04:55:31 10° SSW 04:59:32 68° W 05:03:35 10° N
BREEZE-M DEB (TANK) 3.0 04:59:06 18° W 05:01:08 45° SSW 05:08:03 10° SE
NOAA 11 4.4 04:56:42 10° NNE 05:02:13 77° ESE 05:07:41 10° S
Cosmos 44 Rocket 3.2 04:57:40 10° SW 05:02:22 71° NW 05:07:05 10° NE
Cosmos 1933 Rocket 3.7 04:58:35 10° NNW 05:02:55 52° W 05:07:11 10° S
Cosmos 1461 3.6 05:00:12 10° SSW 05:04:04 53° ESE 05:08:09 10° NE
Cosmos 2173 Rocket 4.1 05:00:01 10° SSW 05:05:56 52° WNW 05:11:54 10° N
Cosmos 1484 Rocket 3.6 05:04:45 10° N 05:08:20 32° WNW 05:11:53 10° SW
GP-B 3.2 05:04:06 10° SSW 05:08:25 53° W 05:12:48 10° N
ATLAS 5 CENTAUR R/B 4.2 05:06:30 10° NNW 05:09:22 15° NNE 05:12:33 10° NE
Atlas Centaur 2 4.5 05:04:51 10° SW 05:09:31 17° SSW 05:13:50 10° SSE
USA 307 3.4 05:08:19 13° W 05:11:49 48° NNW 05:15:52 10° ENE
Spot 4 Rocket 4.1 05:06:55 10° N 05:12:00 62° WNW 05:17:02 10° SSW
SJ-6F 4.5 05:07:56 10° NNE 05:12:08 90° WNW 05:16:16 10° SSW
CZ-2C R/B 3.8 05:09:49 10° NNW 05:13:22 20° WNW 05:16:50 10° WSW
PSLV R/B 3.5 05:09:24 10° N 05:13:45 76° WNW 05:18:02 10° SSW
Cosmos 1741 Rocket 4.0 05:09:57 10° NNW 05:15:07 61° WSW 05:20:14 10° S
Orbus 7S? 4.2 05:12:37 12° W 05:15:39 49° NNW 05:22:22 10° NE
SKYMED 2 3.5 05:13:54 10° SSE 05:18:14 83° WSW 05:22:37 10° NNW
Cosmos 1833 Rocket 3.9 05:14:34 11° W 05:19:03 25° NW 05:23:44 10° N
CZ-4B R/B 3.8 05:15:13 10° NNE 05:20:28 78° ESE 05:25:44 10° SSW
SL-24 R/B - RUBIN 2 4.1 05:17:37 10° SSW 05:21:59 60° ESE 05:26:17 10° NE
Cosmos 2333 Rocket 4.1 05:16:57 10° NNW 05:22:00 30° NE 05:26:58 10° ESE
Cosmos 1975 2.7 05:19:31 10° NNW 05:23:29 72° W 05:27:26 10° S
USA 306 3.6 05:20:33 10° W 05:24:28 41° NNW 05:28:25 10° ENE
SJ-12 3.9 05:21:05 10° NNE 05:25:11 83° WNW 05:29:16 10° SSW
Cosmos 2219 Rocket 4.4 05:21:55 10° N 05:26:34 25° NE 05:31:08 10° E
CZ-3 R/B 4.1 05:12:45 10° WSW 05:27:22 25° SSW 05:33:33 10° SE
Cosmos 2228 Rocket 3.1 05:23:04 10° S 05:27:34 88° W 05:32:04 10° N
ARIANE 5 R/B 3.6 05:24:38 10° N 05:28:37 24° WNW 05:32:34 10° WSW
ALOS 4.3 05:31:22 10° NW 05:31:54 10° NW 05:32:26 10° WNW
Lacrosse 4 Rocket 1.5 05:27:38 10° NNW 05:32:01 85° WSW 05:36:27 10° SSE
H-2A R/B 4.0 05:27:49 10° NNE 05:32:54 38° E 05:37:56 10° SSE
BREEZE M DEB (TANK) 4.0 05:16:05 10° W 05:33:06 83° N 05:37:16 10° E
Cosmos 1331 Rocket 4.0 05:29:47 10° SSW 05:34:55 76° WNW 05:40:07 10° NNE
Cosmos 2082 Rocket 2.7 05:30:28 10° WSW 05:35:42 39° NW 05:40:59 10° NNE
